Flag for USA

Past Weather in Ken Malloy Harbor Regional Park, California, USA — Yesterday and Last 2 Weeks

Now
72 °F

Sunny.


Feels Like: 77 °F
Forecast: 78 / 59 °F
Wind: 3 mph from Southeast

Location: Los Angeles / USC Campus Downtown

Current Time: Oct 18, 2019 at 12:13:14 pm

Latest Report: Oct 18, 2019 at 10:52 am


Visibility: 10 mi

Pressure: 29.94 "Hg

Humidity: 52%

Dew Point: 53 °F

Location of Ken Malloy Harbor Regional ParkLocation

Past Weather in Ken Malloy Harbor Regional Park — Graph

°F

Ken Malloy Harbor Regional Park Temperature Yesterday

Maximum temperature yesterday: 78 °F (at 12:52 pm)
Minimum temperature yesterday: 64 °F (at 5:52 am)
Average temperature yesterday: 69 °F

High & Low Weather Summary for the Past Weeks

 TemperatureHumidityPressure
High93 °F (Oct 16, 12:52 pm)84% (Oct 8, 11:52 pm)30.03 "Hg (Oct 8, 11:52 pm)
Low57 °F (Oct 11, 5:52 am)4% (Oct 11, 12:52 pm)29.75 "Hg (Oct 17, 2:52 pm)
Average70 °F57%29.89 "Hg
* Reported Oct 3 10:52 am — Oct 18 10:52 am, Ken Malloy Harbor Regional Park. Weather by CustomWeather, © 2019

Note: Actual official high and low records may vary slightly from our data, if they occured in-between our weather recording intervals... More about our weather records

Advertising

Ken Malloy Harbor Regional Park Weather History for the Previous 24 Hours

Scroll right to see more
 ConditionsComfort  
Time TempWeatherWind HumidityBarometerVisibility
10:52 am
Fri, Oct 18
72 °FSunny.3 mph52%29.94 "Hg10 mi
9:52 am70 °FSunny.5 mph59%29.94 "Hg10 mi
8:52 am67 °FPassing clouds.No wind66%29.93 "Hg9 mi
7:52 am65 °FSunny.No wind73%29.89 "Hg9 mi
6:52 am63 °FClear.No wind78%29.88 "Hg9 mi
5:52 am63 °FClear.No wind78%29.88 "Hg10 mi
5:20 am63 °FPassing clouds.No wind78%29.87 "Hg10 mi
5:09 am64 °FPassing clouds.No wind75%29.87 "Hg10 mi
4:52 am63 °FClear.No wind78%29.86 "Hg10 mi
3:52 am63 °FClear.3 mph78%29.85 "Hg10 mi
2:52 am65 °FClear.3 mph76%29.85 "Hg10 mi
1:52 am65 °FClear.6 mph78%29.83 "Hg10 mi
12:52 am66 °FClear.6 mph70%29.80 "Hg10 mi
11:52 pm
Thu, Oct 17
71 °FClear.6 mph21%29.79 "Hg10 mi
10:52 pm71 °FPassing clouds.3 mph29%29.79 "Hg9 mi
9:52 pm72 °FClear.6 mph38%29.78 "Hg10 mi
8:52 pm67 °FClear.3 mph68%29.77 "Hg10 mi
7:52 pm67 °FClear.No wind71%29.76 "Hg10 mi
6:52 pm69 °FPassing clouds.5 mph66%29.76 "Hg10 mi
5:52 pm70 °FSunny.3 mph59%29.75 "Hg10 mi
4:52 pm72 °FSunny.7 mph57%29.75 "Hg10 mi
3:52 pm73 °FSunny.5 mph59%29.75 "Hg10 mi
2:52 pm77 °FSunny.8 mph54%29.75 "Hg10 mi
1:52 pm78 °FSunny.5 mph45%29.76 "Hg10 mi
12:52 pm78 °FSunny.3 mph46%29.78 "Hg10 mi
Weather by CustomWeather, © 2019

See weather overview